Location: Newark
(14.9306°N, 3.4333°E)
Time: 08:24:03
(UTC+00:00)

Hubble Space Telescope - Visible Passes

Search period start: 15 October 2019 00:00
Search period end: 25 October 2019 00:00
Orbit: 536 x 540 km, 28.5° (Epoch: 14 October)

Date Brightness Start Highest point End Pass type
(mag) Time Alt. Az. Time Alt. Az. Time Alt. Az.
15 Oct 2.4 18:58:00 10° W 19:01:32 27° SSW 19:02:37 24° S visible
16 Oct 3.0 18:47:52 10° W 18:50:56 20° SSW 18:53:21 13° S visible
17 Oct 3.4 18:38:01 10° WSW 18:40:20 15° SSW 18:42:41 10° S visible
18 Oct 3.8 18:29:04 10° SW 18:29:46 10° SSW 18:30:27 10° SSW visible
23 Oct 3.5 04:03:23 10° S 04:05:25 13° SSE 04:07:27 10° ESE visible
24 Oct 3.0 03:53:40 17° S 03:54:50 18° SSE 03:57:43 10° ESE visible
